Вернуться в каталог

STARLINK-5537

АктивенСвязьVLEO
NORAD 55384·PAYLOAD·🇺🇸 United States

Запущен Jan 26, 2023 с Cape Canaveral Space Force Station

Loading…

Ближайшие Пролёты (ближайшие 24 часа)

TLE

СвежийSource: CelesTrak SupGP

Эпоха: Sep 15, 2026, 01:32 UTC

1 55384C 23013BF  26258.06437500  .00019181  00000+0  69486-3 0  2585
2 55384  43.0042 328.7344 0001983 278.2945 106.4129 15.27562682    17

Отслеживайте STARLINK-5537 в реальном времени с AllMySat

Download on the App Store